#timestamp,LO_Frequency,Hit,StdDev 
1515164415.7,286047001.4,N
1515164435.5,286047002.6,N
1515164455.3,286047007.5,Y
1515164475.2,286047003.1,P
1515164495.9,286046999.9,N
1515164515.7,286047002.2,N
1515164535.6,286047002.3,N
1515164555.4,286047000.4,N
1515164575.2,286047000.6,N
1515164595.0,286046998.7,N
1515164596.0,286046998.7,N
1515164615.8,286047000.6,N
1515164635.6,286046998.6,N
1515164655.4,286047000.0,N
1515164675.3,286047003.5,N
1515164695.1,286047003.3,N
1515164715.8,286047001.9,N
1515164735.7,286046996.9,N
1515164755.5,286046998.2,N
1515164775.3,286046997.8,N
1515164795.2,286046994.5,N
1515164815.9,286046992.2,Y
1515164835.7,286046989.4,P
1515164855.6,286046991.4,N
1515164875.4,286046990.9,N
1515164895.2,286046988.7,N
1515164915.1,286046991.6,N
1515164916.0,286046991.6,N
1515164935.8,286046990.3,N
1515164955.6,286046987.6,Y
1515164975.5,286046993.7,P
1515164995.3,286046996.1,P
1515165015.1,286046993.3,P
1515165035.8,286046996.4,N
1515165055.7,286046994.2,Y
1515165075.5,286047000.4,P
1515165095.4,286047003.8,N
1515165115.2,286047001.7,N
1515165135.0,286047003.6,N
1515165135.9,286047003.6,N
1515165155.7,286047003.5,N
1515165175.6,286047002.2,N
1515165195.4,286047006.9,N
1515165215.2,286047006.2,N
1515165235.1,286047007.4,N
1515165236.0,286047007.4,N
1515165255.8,286047007.5,N
1515165275.6,286047010.7,N
1515165295.5,286047008.0,N
1515165315.3,286047008.2,N
1515165335.1,286047008.1,N
1515165355.9,286047010.2,N
1515165375.7,286047008.1,N
1515165395.5,286047006.8,N
1515165415.4,286047006.8,N
1515165435.2,286047006.9,N
1515165455.0,286047005.8,N
1515165455.9,286047005.8,N
1515165475.7,286047005.9,N
1515165495.6,286047005.6,N
1515165515.4,286047006.3,N
1515165535.2,286047009.7,N
1515165555.1,286047012.3,Y
1515165556.0,286047012.3,P
1515165575.8,286047002.2,N
1515165595.6,286047005.2,N
1515165615.5,286047004.7,N
1515165635.3,286047003.9,N
1515165655.1,286047002.0,N
1515165675.9,286047002.0,N
1515165695.7,286047003.7,N
1515165715.5,286047003.5,N
1515165735.4,286047001.9,N
1515165755.2,286046999.8,N
1515165775.0,286046997.3,N
1515165775.9,286046997.3,N
1515165795.8,286046998.3,N
1515165815.6,286047000.8,N
1515165835.4,286046998.2,N
1515165855.2,286046998.8,N
1515165875.1,286046998.3,N
1515165876.0,286046998.3,N
1515165895.8,286046998.2,N
1515165915.6,286046997.3,N
1515165935.5,286046996.7,N
1515165955.3,286047001.2,N
1515165975.1,286046998.6,N
1515165995.9,286046997.6,N
1515166015.7,286046996.2,N
1515166035.5,286046999.2,N
1515166055.4,286047000.0,N
1515166075.2,286046999.1,N
1515166095.0,286047000.7,N
1515166095.9,286047000.7,N
1515166115.8,286047000.9,N
1515166135.6,286047000.3,N
1515166155.4,286047002.1,N
1515166175.2,286047002.3,N
1515166195.1,286047003.5,N
1515166196.0,286047003.5,N
1515166215.8,286047003.7,N
1515166235.6,286047002.4,N
1515166255.5,286047000.0,N
1515166275.3,286047002.9,N
1515166295.1,286047008.8,Y
1515166315.9,286047008.9,P
1515166335.7,286047006.2,N
1515166355.5,286047007.5,N
1515166375.4,286047010.8,Y
1515166395.2,286047007.0,P
1515166415.0,286047006.3,P
1515166415.9,286047006.3,P
1515166435.8,286047011.2,Y
1515166455.6,286047012.4,P
1515166475.4,286047008.5,N
1515166495.3,286047006.8,N
1515166515.1,286047009.9,Y
1515166535.8,286047000.1,P
1515166555.7,286047000.7,N
1515166575.5,286046997.8,N
1515166595.3,286046996.4,N
1515166615.2,286046994.5,N
1515166635.9,286046994.0,N
1515166655.7,286046992.1,N
1515166675.6,286046992.2,N
1515166695.4,286046992.1,N
1515166715.2,286046990.9,N
1515166735.1,286046988.3,N
1515166736.0,286046988.3,N
1515166755.8,286046985.4,N
1515166775.6,286046982.2,Y
1515166795.5,286046989.0,P
1515166815.3,286046989.9,P
1515166835.1,286046988.6,P
1515166855.9,286046988.8,Y
1515166875.7,286047002.3,P
1515166895.5,286047003.5,N
1515166915.4,286047002.1,N
1515166935.2,286046999.9,N
1515166955.0,286047002.7,N
1515166955.9,286047002.7,N
1515166975.8,286046998.4,N
1515166995.6,286046997.4,N
1515167015.4,286046997.7,N
1515167035.2,286046999.6,N
1515167055.1,286047002.1,N
1515167056.0,286047002.1,N
1515167075.8,286047002.3,N
1515167095.6,286046999.9,N
1515167115.5,286047004.2,N
1515167135.3,286047001.9,N
1515167155.1,286047000.6,N
1515167175.9,286047003.1,N
1515167195.7,286047004.2,N
1515167215.5,286047003.5,N
1515167235.4,286047003.8,N
1515167255.2,286046999.7,N
1515167275.0,286047001.6,N
1515167275.9,286047001.6,N
1515167295.8,286047007.5,N
1515167315.6,286047004.5,N
1515167335.4,286047001.9,N
1515167355.2,286047006.4,N
1515167375.1,286047009.4,Y
1515167376.0,286047009.4,P
1515167395.8,286047011.8,P
1515167415.7,286047011.6,N
1515167435.5,286047011.3,N
1515167455.3,286047014.8,Y
1515167475.2,286047007.7,P
1515167495.9,286047011.2,P
1515167515.7,286047010.4,P
1515167535.6,286047004.8,Y
1515167555.4,286046993.4,P
1515167575.2,286046999.0,N
1515167595.0,286047004.4,N
1515167595.9,286047004.4,N
1515167615.8,286047000.6,N
1515167635.6,286047001.2,N
1515167655.4,286047000.1,N
1515167675.3,286047003.9,N
1515167695.1,286047007.3,N
1515167715.8,286047007.5,N
1515167735.7,286047006.6,N
1515167755.5,286047007.4,N
1515167775.3,286047009.7,N
1515167795.2,286047007.4,N
1515167815.9,286047003.5,N
1515167835.7,286047003.6,N
1515167855.5,286047002.7,N
1515167875.4,286047001.6,N
1515167895.2,286047009.0,N
1515167915.0,286047008.4,N
1515167915.9,286047008.4,N
1515167935.8,286047007.3,N
1515167955.6,286047006.8,N
1515167975.4,286047009.3,N
1515167995.3,286047010.7,N
